Flag for Germany Weather past 2 weeks in Buxtehude, Lower Saxony, Germany

Now
52 °F

Light rain. Partly sunny.


Feels Like: 48 °F
Forecast: 39 / 52 °F
Wind: 10 mph from Southwest

Location: Hamburg-Finkenwerder


UV Index: 3 (Moderate)

Visibility: N/A


Pressure: 29.83 "Hg

Humidity: 72%

Dew point: 43 °F

Location of BuxtehudeLocation

Historic Weather in Buxtehude

°F

Buxtehude temperature yesterday

Maximum temperature yesterday: 61 °F (at 2:20 PM)
Minimum temperature yesterday: 43 °F (at 5:50 AM)
Average temperature yesterday: 54 °F

Past Weeks' High & Low Weather Summary

 TemperatureHumidityPressure
High66 °F (Apr 7, 3:50 PM)100% (Apr 4, 1:50 PM)30.45 "Hg (Apr 4, 1:50 PM)
Low32 °F (Apr 16, 5:50 AM)33% (Apr 16, 7:50 PM)29.65 "Hg (Apr 3, 5:50 AM)
Average50 °F75%29.99 "Hg
* Reported Apr 3 5:50 AM — Apr 17 9:20 PM, Buxtehude, Weather by CustomWeather, © 2014

Note: Actual official high and low records may vary slightly from our data, if they occured in-between our weather recording intervals... More about our weather records

Advertising

Historic Weather Conditions — Data for Previous 24 hours

 ConditionsComfort  
Time TempWeatherWind HumidityBarometerVisibility
9:20 PM
Apr 17
52 °FLight rain. Partly sunny.10 mph72%29.83 "HgN/A
8:50 PM52 °FLight rain. Partly sunny.9 mph72%29.83 "HgN/A
8:20 PM52 °FLight rain. Partly sunny.17 mph77%29.86 "Hg6 mi
7:50 PM55 °FSprinkles. Broken clouds.20 mph59%29.86 "Hg6 mi
6:50 PM57 °FSunny.12 mph48%29.89 "Hg10 mi
6:20 PM59 °FSunny.15 mph42%29.89 "Hg10 mi
5:50 PM59 °FSunny.16 mph42%29.92 "Hg10 mi
5:20 PM59 °FSunny.16 mph42%29.92 "Hg10 mi
4:50 PM59 °FSunny.15 mph42%29.95 "Hg10 mi
4:20 PM61 °FSunny.17 mph39%29.95 "Hg10 mi
3:50 PM61 °FSunny.20 mph36%29.98 "Hg10 mi
3:20 PM61 °FPassing clouds.17 mph39%29.98 "HgN/A
2:50 PM59 °FPassing clouds.17 mph42%30.01 "HgN/A
2:20 PM61 °FPassing clouds.18 mph39%30.04 "HgN/A
1:50 PM59 °FSunny.16 mph42%30.07 "Hg10 mi
1:20 PM59 °FSunny.17 mph45%30.09 "Hg10 mi
12:50 PM57 °FSunny.15 mph44%30.09 "Hg10 mi
12:20 PM55 °FPassing clouds.15 mph47%30.12 "HgN/A
11:50 AM55 °FPassing clouds.14 mph44%30.12 "HgN/A
11:20 AM55 °FPassing clouds.15 mph44%30.15 "HgN/A
10:50 AM54 °FSunny.16 mph47%30.18 "Hg10 mi
10:20 AM52 °FPassing clouds.14 mph47%30.18 "HgN/A
9:50 AM50 °FSunny.14 mph50%30.18 "Hg10 mi
9:20 AM50 °FSunny.12 mph50%30.21 "Hg10 mi
8:50 AM48 °FSunny.13 mph50%30.21 "Hg10 mi
8:20 AM46 °FSunny.15 mph53%30.21 "Hg10 mi
7:50 AM45 °FSunny.13 mph57%30.21 "Hg10 mi
7:20 AM45 °FSunny.12 mph57%30.24 "Hg10 mi
6:50 AM43 °FClear.10 mph61%30.24 "Hg10 mi
6:20 AM43 °FClear.10 mph61%30.24 "Hg10 mi
5:50 AM43 °FClear.12 mph66%30.24 "Hg10 mi
Weather by CustomWeather, © 2014

See weather overview